TimeEST,TemperatureF,Dew PointF,Humidity,Sea Level PressureIn,VisibilityMPH,Wind Direction,Wind SpeedMPH,Gust SpeedMPH,PrecipitationIn,Events,Conditions,WindDirDegrees,DateUTC
12:54 AM,37.0,21.0,52,30.03,10.0,Variable,3.5,-,N/A,,Clear,0,2013-12-18 05:54:00
1:54 AM,35.1,19.9,54,30.05,10.0,SW,4.6,-,N/A,,Clear,230,2013-12-18 06:54:00
2:54 AM,32.0,21.0,64,30.08,10.0,Calm,Calm,-,N/A,,Clear,0,2013-12-18 07:54:00
3:54 AM,33.1,19.9,59,30.11,10.0,Calm,Calm,-,N/A,,Clear,0,2013-12-18 08:54:00
4:54 AM,32.0,19.0,59,30.13,10.0,West,4.6,-,N/A,,Clear,260,2013-12-18 09:54:00
5:54 AM,28.0,19.9,72,30.15,10.0,Calm,Calm,-,N/A,,Clear,0,2013-12-18 10:54:00
6:54 AM,28.0,19.0,69,30.18,10.0,SSW,5.8,-,N/A,,Clear,200,2013-12-18 11:54:00
7:54 AM,30.9,18.0,59,30.20,10.0,WSW,3.5,-,N/A,,Clear,250,2013-12-18 12:54:00
8:54 AM,34.0,19.9,56,30.22,10.0,SW,4.6,-,N/A,,Clear,220,2013-12-18 13:54:00
9:54 AM,36.0,18.0,48,30.23,10.0,West,6.9,-,N/A,,Clear,270,2013-12-18 14:54:00
10:54 AM,37.9,19.0,47,30.23,10.0,WSW,5.8,-,N/A,,Clear,240,2013-12-18 15:54:00
11:54 AM,39.0,17.1,41,30.22,10.0,West,10.4,19.6,N/A,,Clear,270,2013-12-18 16:54:00
12:54 PM,43.0,18.0,37,30.21,10.0,WSW,8.1,-,N/A,,Clear,240,2013-12-18 17:54:00
1:54 PM,43.0,19.0,38,30.20,10.0,SW,9.2,16.1,N/A,,Clear,230,2013-12-18 18:54:00
2:54 PM,43.0,17.1,35,30.21,10.0,SSW,8.1,17.3,N/A,,Clear,210,2013-12-18 19:54:00
3:54 PM,43.0,16.0,34,30.22,10.0,SW,8.1,-,N/A,,Clear,230,2013-12-18 20:54:00
4:54 PM,41.0,16.0,36,30.22,10.0,WSW,4.6,-,N/A,,Clear,240,2013-12-18 21:54:00
5:54 PM,35.1,17.1,48,30.24,10.0,Calm,Calm,-,N/A,,Clear,0,2013-12-18 22:54:00
6:54 PM,33.1,17.1,52,30.25,10.0,WSW,3.5,-,N/A,,Clear,240,2013-12-18 23:54:00
7:54 PM,36.0,17.1,46,30.25,10.0,West,3.5,-,N/A,,Clear,270,2013-12-19 00:54:00
8:54 PM,37.0,16.0,42,30.25,10.0,WSW,5.8,-,N/A,,Clear,250,2013-12-19 01:54:00
9:54 PM,30.0,17.1,59,30.26,10.0,SW,3.5,-,N/A,,Clear,230,2013-12-19 02:54:00
10:54 PM,30.0,16.0,56,30.26,10.0,Calm,Calm,-,N/A,,Clear,0,2013-12-19 03:54:00
11:54 PM,28.9,16.0,58,30.25,10.0,SW,4.6,-,N/A,,Clear,230,2013-12-19 04:54:00